Location: New York
(40.7140°N, 74.0060°W)
Time: 16:13:03
(UTC-05:00)

ISS - Visible Passes

Search period start: 09 December 2016 00:00
Search period end: 19 December 2016 00:00
Orbit: 401 x 410 km, 51.6° (Epoch: 10 December)

Date Brightness Start Highest point End Pass type
(mag) Time Alt. Az. Time Alt. Az. Time Alt. Az.
09 Dec -0.9 17:24:26 10° NW 17:26:12 14° N 17:27:57 10° NNE visible
10 Dec -0.8 18:09:48 10° NNW 18:10:48 12° N 18:10:48 12° N visible
11 Dec -0.9 17:17:39 10° NNW 17:19:09 12° N 17:20:39 10° NNE visible
12 Dec -1.1 18:02:11 10° NNW 18:03:44 15° N 18:03:44 15° N visible
13 Dec -1.1 17:10:17 10° NNW 17:12:02 14° N 17:13:49 10° NE visible
13 Dec -0.4 18:46:13 10° NW 18:46:37 12° NW 18:46:37 12° NW visible
14 Dec -1.8 17:54:22 10° NNW 17:56:54 23° NNE 17:56:54 23° NNE visible
15 Dec -1.5 17:02:31 10° NNW 17:04:50 17° NNE 17:07:09 10° ENE visible
15 Dec -1.4 18:38:28 10° NW 18:40:01 25° NW 18:40:01 25° NW visible
16 Dec -2.8 17:46:31 10° NW 17:49:40 41° NNE 17:50:35 32° ENE visible
17 Dec -2.3 18:30:54 10° WNW 18:34:04 44° SW 18:34:09 44° SW visible
18 Dec -3.4 17:38:44 10° NW 17:42:03 88° SW 17:45:20 10° SE visible
